Regional Weather Roundup
Issued by NWS

Home | Current Version | Previous Version | Text Only | Print | Product List | Glossary On
Versions: 1 2 3 4 5 6 7 8 9 10 11 12 13 14 15 16 17 18 19 20 21 22 23 24 25 26 27 28 29 30 31 32 33 34 35 36 37 38 39 40 41 42 43 44 45 46 47 48 49 50
000
ASUS43 KLMK 101002
RWRKY
KENTUCKY REGIONAL WEATHER ROUNDUP
NATIONAL WEATHER SERVICE LOUISVILLE KY
500 AM EST WED FEB 10 2016

NOTE "FAIR" INDICATES FEW OR NO CLOUDS BELOW 12,000 FEET
WITH NO SIGNIFICANT WEATHER AND/OR OBSTRUCTIONS TO VISIBILITY.

KYZ001>023-026-027-061>063-070>075-101100-
WESTERN AND SOUTH CENTRAL KENTUCKY

CITY           SKY/WX    TMP DP  RH WIND       PRES   REMARKS
PADUCAH        CLOUDY    22  10  60 N12       30.15R WCI  10
HENDERSON      MOCLDY    18   7  62 NW16      30.12S WCI   3
OWENSBORO      MOCLDY    16   9  74 W15       30.10R WCI   1
HOPKINSVILLE   FLURRIES  19  10  68 NW10      30.11R WCI   8
BOWLING GREEN  CLEAR     18   9  68 W9        30.10R WCI   7
GLASGOW        NOT AVBL
$$

KYZ024-025-028>034-038-045-046-053-101100-
NORTH CENTRAL KENTUCKY

CITY           SKY/WX    TMP DP  RH WIND       PRES   REMARKS
LOUISVILLE/SDF LGT SNOW  18  12  77 W14       30.03R WCI   4
LOUISVILLE/LOU CLOUDY    19  11  70 W8        30.03R WCI   9
FORT KNOX      FLURRIES  17  10  75 W10       30.00S WCI   4
$$

KYZ035>037-039>044-047>052-055>060-089>105-101100-
NORTHEAST KENTUCKY

CITY           SKY/WX    TMP DP  RH WIND       PRES   REMARKS
LEXINGTON      CLOUDY    16  11  80 W9        29.97R WCI   4
COVINGTON      FLURRIES  15   9  76 W10       29.93S WCI   2
FRANKFORT      LGT SNOW  17  12  80 W6        29.97S WCI   9
$$

KYZ054-064>069-076>088-106>120-101100-
SOUTHEAST KENTUCKY

CITY           SKY/WX    TMP DP  RH WIND       PRES   REMARKS
JACKSON        LGT SNOW  16   9  74 SW3       29.93R
LONDON         LGT SNOW  16  11  80 W9        29.98R VSB 3/4 WCI   4
SOMERSET       NOT AVBL
MIDDLESBORO    FLURRIES  19  10  69 CALM      29.99S
MONTICELLO     CLOUDY    18  11  74 W10G17    30.04R WCI   6
$$




USA.gov is the U.S. government's official web portal to all federal, state and local government web resources and services.